Regional Weather Roundup
Issued by NWS

Home | Current Version | Previous Version | Graphics & Text | Print | Product List | Glossary On
Versions: 1 2 3 4 5 6 7 8 9 10 11 12 13 14 15 16 17 18 19 20 21 22 23 24 25 26 27 28 29 30 31 32 33 34 35 36 37 38 39 40 41 42 43 44 45 46 47 48 49 50
000
ASUS44 KMEG 261710
RWRTN
TENNESSEE HOURLY STATE WEATHER ROUNDUP
NATIONAL WEATHER SERVICE MEMPHIS TN
1200 PM CDT WED JUL 26 2017

TNZ002-004-019-021-049-052-054-088>092-261800-
WEST TENNESSEE

CITY           SKY/WX    TMP DP  RH WIND       PRES   REMARKS
MEMPHIS INTL   MOSUNNY   93  75  55 W7        30.11S HX 104
NWS MEMPHIS      N/A     92 N/A N/A MISG        N/A
JACKSON        SUNNY     92  75  57 W6        30.10F HX 103
SOMERVILLE       N/A     93  75  55 S7        30.10S HX 104
COVINGTON      SUNNY     91  75  59 W8        30.10S HX 102
UNION CITY     SUNNY     91  79  66 SW7       30.08S HX 107
BOLIVAR        PTSUNNY   91  75  59 SW6       30.10S HX 102
PARIS          SUNNY     90  77  66 SW5       30.09S HX 102
HUNTINGDON     SUNNY     93  77  59 SW9       30.09S HX 107
LEXINGTON      MOSUNNY   91  75  59 S5        30.10F HX 102
SELMER         SUNNY     91  75  59 W6        30.10F HX 102
SAVANNAH       MOSUNNY   91  75  59 CALM      30.10S HX 102
$$

TNZ008-025-027-028-033-062-065-066-261800-
NORTH MIDDLE TENNESSEE

CITY           SKY/WX    TMP DP  RH WIND       PRES   REMARKS
NASHVILLE      PTSUNNY   91  71  51 SW6       30.11F HX  97
PORTLAND       PTSUNNY   90  73  58 CALM      30.11S HX  98
CLARKSVILLE    PTSUNNY   89  72  56 S3        30.09F HX  96
SMYRNA         PTSUNNY   89  74  60 N5        30.12F HX  98
COOKEVILLE     SUNNY     88  73  62 VRB3      30.13F HX  96
GALLATIN       MOSUNNY   90  75  62 CALM      30.13S HX 100
CROSSVILLE     SUNNY     83  68  60 CALM      30.20F
$$

TNZ061-075-076-078-094-096-097-261800-
SOUTH MIDDLE TENNESSEE

CITY           SKY/WX    TMP DP  RH WIND       PRES   REMARKS
FAYETTEVILLE   MOSUNNY   90  73  58 CALM      30.13F HX  98
TULLAHOMA      PTSUNNY   88  70  55 N5        30.16S HX  92
WINCHESTER     MOSUNNY   90  73  58 W3        30.14F HX  98
MCMINNVILLE    MOSUNNY   90  75  62 CALM      30.14F HX 100
COLUMBIA       MOSUNNY   90  75  62 CALM      30.10S HX 100
SHELBYVILLE    MOSUNNY   88  73  62 CALM      30.13S HX  96
$$

TNZ017-018-042-046-047-261800-
NORTHEAST TENNESSEE

CITY           SKY/WX    TMP DP  RH WIND       PRES   REMARKS
TRI CITIES     MOSUNNY   87  64  46 W5        30.18F
ELIZABETHTON   MOSUNNY   86  66  51 SE5       30.18F
$$

TNZ012-013-036-069-073-074-261800-
CENTRAL EAST TENNESSEE

CITY           SKY/WX    TMP DP  RH WIND       PRES   REMARKS
KNOXVILLE      MOSUNNY   90  63  40 CALM      30.13F HX  91
OAK RIDGE      SUNNY     89  66  46 CALM      30.15F HX  91
DOWNTOWN KNOXV SUNNY     90  70  51 CALM      30.13F HX  95
GATLINBURG       N/A     91  64  40 VRB7      30.13F HX  93
MORRISTOWN     SUNNY     88  64  45 VRB6      30.15F
JACKSBORO      MOSUNNY   86  72  62 E5        30.18F HX  92
$$

TNZ083-085-099-261800-
SOUTHEAST TENNESSEE

CITY           SKY/WX    TMP DP  RH WIND       PRES   REMARKS
CHATTANOOGA    MOSUNNY   90  68  48 W5        30.13F HX  94
DAYTON         SUNNY     88  73  62 CALM      30.13F HX  96
$$

SKY/WX REPORTED AS FAIR MEANS FEW OR NO CLOUDS BELOW
12 THOUSAND FEET.





USA.gov is the U.S. government's official web portal to all federal, state and local government web resources and services.